Wind_Speed
41 39 44 48 42 37 39 39 37 40 35 31 34 34 34 32 37 40 39 38 41 43 42 42 41 40 38 36 35 35 36 37 35 35 35 36 37 38 39 39 40 42 44 45
47 44 50 47 46 43 43 43 43 40 37 32 35 35 38 34 35 42 41 42 42 42 45 44 42 43 41 40 39 39 39 38 38 38 39 39 40 41 42 43 45 46 45 45
53 50 52 52 52 51 51 50 51 43 41 35 34 28 34 40 37 41 45 45 43 43 44 43 44 46 46 44 42 42 41 42 42 42 41 43 43 45 47 48 49 50 49 52
54 54 57 58 54 57 53 58 55 52 44 39 38 27 30 40 42 42 48 45 46 47 46 45 45 46 48 48 47 44 44 45 44 44 46 48 50 51 52 54 54 55 56 59
54 58 59 56 58 62 59 63 60 55 43 39 36 38 28 44 46 47 46 47 49 48 48 46 45 46 48 50 50 48 48 48 50 52 53 54 56 56 58 60 62 62 63 65
59 59 59 57 62 66 67 66 66 54 47 34 39 40 24 46 54 53 51 50 49 49 50 49 47 45 46 47 49 51 53 54 56 56 57 59 62 63 62 63 63 64 65 66
66 66 68 67 67 70 72 71 64 56 49 40 47 39 29 44 55 55 56 54 53 53 51 51 49 49 47 47 49 52 54 56 57 58 61 62 62 62 62 63 64 65 67 69
71 71 71 72 72 75 75 72 65 63 57 43 41 36 43 44 52 57 57 59 60 60 58 56 55 54 53 54 55 56 58 59 61 62 62 61 62 63 65 65 66 66 68 71
77 76 74 73 74 78 77 71 72 70 57 48 43 40 42 46 51 56 62 63 63 62 58 56 56 57 57 57 57 58 60 61 63 64 64 63 65 66 66 67 68 71 71 72
82 81 78 78 81 79 74 74 70 68 62 56 45 45 46 49 51 56 61 63 64 63 62 59 55 52 54 55 56 58 60 61 61 62 62 64 66 67 69 71 72 73 75 77
88 84 77 79 77 75 78 73 71 71 69 65 57 52 49 51 52 58 61 63 63 62 60 58 56 56 57 56 56 58 60 60 61 63 65 67 70 71 72 74 76 79 81 83
86 90 86 84 83 81 78 74 73 71 68 70 66 46 49 54 56 59 63 64 64 65 66 64 62 59 60 62 63 64 65 65 66 66 68 70 71 72 75 77 79 82 84 86
85 86 87 86 84 82 79 74 75 77 77 73 74 48 54 60 61 65 66 65 63 62 64 65 64 63 63 64 66 66 65 66 67 69 71 71 73 77 79 81 84 85 87 90
96 96 89 83 82 84 82 80 80 82 81 72 72 63 59 62 65 69 72 69 67 67 67 67 68 69 69 69 69 69 70 72 73 74 75 78 81 82 84 86 88 90 92 96
102 99 96 89 90 91 88 86 87 86 76 87 68 79 57 64 73 74 73 71 68 66 69 71 72 72 72 73 74 75 76 78 78 77 78 80 83 87 90 93 96 98 100 100
105 102 103 99 97 97 98 95 89 88 86 85 74 78 71 76 76 74 76 75 72 73 73 75 76 76 77 77 78 80 81 81 81 81 83 86 89 92 95 97 100 99 101 104
108 106 104 102 103 107 109 90 96 94 93 94 91 76 82 80 80 79 79 77 72 72 74 76 78 78 79 79 80 81 84 87 88 88 90 93 95 97 97 98 100 101 103 106
114 114 114 109 110 117 100 101 102 103 99 98 95 86 89 87 86 83 80 80 77 78 78 80 82 84 85 86 86 89 91 91 93 92 94 95 96 98 99 101 101 101 101 103
115 114 116 117 113 112 104 97 100 105 100 99 102 95 93 97 96 83 89 91 89 88 86 84 86 89 90 92 92 89 87 91 92 94 95 92 95 97 98 101 103 105 108 111
116 116 120 119 119 120 102 104 104 109 107 96 103 100 99 102 99 85 98 96 94 94 93 92 92 94 95 95 94 90 93 97 97 97 96 94 100 98 99 103 107 110 113 119
116 116 115 116 121 121 114 111 114 118 105 108 110 108 107 105 102 98 101 100 95 92 94 92 91 92 92 92 92 93 94 98 101 100 102 102 108 107 105 110 111 114 118 120
119 119 117 117 119 120 109 112 114 111 109 111 103 107 104 103 98 95 96 98 97 98 95 94 95 93 92 93 92 92 95 99 102 104 108 110 115 114 111 115 117 119 122 123
126 123 122 122 122 120 116 113 113 111 109 108 105 106 107 105 103 100 96 97 99 98 99 99 99 97 98 99 97 97 96 103 108 112 110 116 119 116 118 122 122 122 124 127
129 127 126 125 123 122 117 117 116 115 114 113 114 112 109 107 106 106 105 104 102 100 101 102 102 101 103 102 102 103 106 107 109 110 117 121 121 119 124 124 126 127 129 132
129 130 127 125 124 122 124 123 121 119 119 120 121 122 123 119 117 113 110 109 107 107 106 106 106 110 109 109 111 111 111 112 114 117 122 123 121 124 124 130 130 134 135 138
136 136 131 128 127 128 128 129 128 125 122 122 123 124 123 122 121 119 116 115 115 115 113 114 115 115 116 116 114 116 118 118 121 124 122 126 130 129 131 134 138 138 142 144
Wind_Direction
253 254 253 255 259 259 260 261 266 261 260 262 262 264 262 269 270 265 263 262 259 262 264 266 271 274 273 272 270 266 261 260 259 262 267 273 278 282 287 289 291 292 293 295
255 253 252 254 258 257 260 261 262 262 257 252 259 263 270 264 262 268 267 262 260 261 262 267 269 270 270 272 274 270 264 266 266 269 274 277 281 284 288 289 291 293 291 291
250 249 253 254 254 255 258 259 259 257 259 260 256 257 259 263 263 261 263 263 264 263 264 265 266 268 271 273 274 272 269 266 268 273 277 281 283 283 284 286 287 291 291 292
248 248 248 251 253 255 254 258 258 257 255 257 259 242 261 261 263 263 262 265 266 266 267 268 268 267 268 271 272 272 272 271 272 272 274 275 277 279 281 282 285 287 287 289
245 247 249 251 254 256 252 255 255 257 257 260 260 251 239 265 266 263 263 265 265 268 270 270 269 270 268 267 270 272 271 271 270 271 273 275 278 280 280 281 282 283 285 286
243 243 247 249 250 253 254 255 257 259 260 258 259 255 246 257 260 264 265 264 267 270 272 272 272 270 270 269 267 267 268 268 270 273 274 275 278 279 280 282 283 284 286 288
243 241 241 244 248 252 253 253 258 263 262 254 254 260 244 246 260 267 273 274 272 269 268 270 272 272 271 270 270 270 269 270 273 275 276 277 278 279 281 282 284 285 286 288
241 242 244 242 245 250 254 257 259 258 260 263 263 263 260 259 258 262 265 267 268 268 269 271 273 273 271 270 271 271 269 270 273 275 277 278 278 279 281 282 283 286 288 290
241 242 241 244 247 250 252 258 259 266 271 269 269 270 267 264 264 268 267 270 271 270 270 272 273 274 273 273 275 275 275 275 276 278 279 279 280 280 281 283 286 289 290 290
242 242 244 246 248 253 258 258 262 266 268 266 262 262 266 268 272 269 269 269 269 270 272 273 275 276 276 276 276 276 277 278 279 279 279 280 281 282 285 287 289 289 288 288
246 247 246 248 252 254 258 262 265 267 271 269 264 265 268 269 264 264 264 267 269 272 274 277 279 280 279 279 279 278 278 278 280 282 283 283 284 287 288 288 288 289 290 290
247 248 249 250 253 256 260 264 266 267 265 265 270 270 267 266 262 260 262 264 266 271 274 276 278 278 278 278 278 279 281 283 283 284 283 284 286 285 287 289 290 291 292 293
243 247 249 250 253 257 260 259 259 261 263 269 273 273 265 264 264 265 264 266 265 268 272 276 278 279 278 278 280 282 283 283 283 284 285 287 287 288 290 291 292 292 293 293
245 246 248 249 250 250 253 255 257 261 268 274 273 272 269 266 266 266 264 267 268 268 271 273 276 278 279 281 281 282 284 285 286 288 288 289 289 290 290 291 291 292 293 293
244 246 247 247 248 252 252 254 259 264 267 267 272 273 273 271 269 268 271 272 272 272 272 274 276 278 280 282 283 284 286 286 287 287 288 288 289 289 290 290 291 291 292 292
243 244 246 247 250 253 255 257 262 265 266 269 268 268 273 269 272 273 273 272 272 274 277 277 277 278 280 281 283 283 284 283 284 285 285 285 286 287 288 289 289 291 292 293
245 246 247 246 248 252 253 261 261 261 263 266 269 273 269 272 270 272 274 276 276 276 274 275 277 276 278 280 282 283 283 284 285 285 285 286 287 288 288 289 289 292 291 291
247 248 250 251 249 252 257 257 261 262 262 266 268 267 268 270 272 273 276 276 275 275 277 277 278 278 279 282 283 283 284 283 284 284 285 288 287 288 291 291 292 293 295 298
249 248 250 251 252 254 252 257 261 262 261 265 267 266 266 267 268 273 274 273 276 278 281 279 278 277 278 280 283 283 279 281 283 286 289 292 293 293 292 293 294 296 297 301
251 251 250 250 251 254 254 255 258 259 261 266 269 269 268 269 271 271 270 274 276 277 277 278 276 276 277 278 278 277 277 278 283 286 289 291 294 291 294 296 295 298 297 300
255 254 255 254 256 258 259 256 254 258 262 260 261 265 267 271 272 271 271 273 274 276 274 274 274 272 275 278 280 279 278 280 283 285 285 290 292 295 294 298 299 296 298 300
255 256 258 260 261 264 265 263 262 261 261 260 261 261 264 267 270 275 272 270 275 275 275 276 277 277 280 284 278 281 280 280 282 283 282 287 290 296 297 300 299 297 298 302
254 255 257 260 262 264 265 265 266 267 266 262 261 258 260 264 268 274 277 274 276 278 277 279 281 282 283 284 285 287 285 281 279 281 281 289 293 296 296 297 298 299 301 303
250 253 256 257 260 263 264 265 265 268 271 269 270 271 272 273 275 278 280 280 278 279 281 281 282 284 284 284 285 285 286 285 283 278 283 287 292 293 295 297 300 300 303 303
249 250 251 253 258 260 262 262 262 264 267 268 271 274 277 279 280 280 280 280 280 280 280 281 282 282 285 285 285 287 286 286 285 285 285 291 291 294 293 298 301 302 301 304
245 248 249 251 252 255 257 259 260 262 263 263 265 269 272 274 276 276 277 279 279 280 280 280 282 284 285 285 284 285 285 285 285 288 290 291 293 295 295 298 299 301 301 302
Height
10744 10747 10742 10738 10746 10749 10749 10752 10752 10751 10757 10759 10758 10758 10758 10759 10756 10754 10756 10758 10758 10758 10759 10759 10760 10760 10759 10759 10759 10758 10758 10756 10756 10755 10753 10752 10751 10749 10747 10744 10743 10742 10739 10736
10732 10735 10728 10733 10735 10739 10739 10742 10741 10743 10748 10753 10751 10753 10750 10752 10749 10745 10747 10747 10748 10751 10750 10752 10753 10752 10751 10751 10751 10751 10750 10749 10747 10745 10743 10742 10740 10738 10736 10734 10731 10730 10728 10725
10718 10720 10719 10721 10722 10726 10727 10731 10729 10736 10738 10745 10745 10749 10745 10739 10741 10738 10735 10736 10738 10740 10742 10743 10744 10743 10743 10743 10743 10741 10740 10740 10738 10736 10733 10731 10730 10727 10725 10723 10720 10717 10714 10711
10707 10707 10704 10705 10713 10711 10717 10713 10719 10722 10729 10735 10737 10744 10739 10731 10731 10729 10725 10729 10728 10729 10731 10734 10735 10734 10733 10733 10733 10732 10731 10730 10728 10726 10724 10722 10719 10718 10715 10712 10708 10705 10702 10698
10697 10692 10694 10699 10697 10695 10704 10699 10704 10710 10720 10727 10731 10731 10736 10722 10719 10715 10719 10719 10717 10718 10721 10723 10725 10725 10724 10723 10723 10723 10721 10720 10717 10715 10713 10711 10708 10706 10704 10700 10696 10693 10689 10685
10678 10681 10679 10684 10680 10679 10683 10688 10689 10699 10709 10723 10717 10719 10734 10715 10705 10704 10707 10709 10710 10712 10710 10711 10713 10714 10713 10713 10713 10711 10710 10707 10705 10704 10701 10699 10697 10694 10690 10687 10683 10680 10676 10672
10659 10663 10665 10667 10666 10664 10666 10669 10678 10689 10697 10707 10703 10712 10722 10708 10695 10695 10693 10697 10698 10699 10700 10700 10702 10703 10704 10702 10701 10700 10698 10696 10694 10691 10688 10686 10683 10679 10676 10673 10669 10665 10661 10656
10639 10646 10650 10653 10653 10649 10651 10657 10668 10671 10680 10694 10699 10708 10703 10703 10696 10687 10684 10680 10683 10685 10687 10687 10689 10691 10691 10690 10690 10688 10686 10684 10681 10677 10675 10671 10667 10664 10661 10658 10653 10649 10645 10639
10622 10627 10633 10637 10638 10634 10644 10653 10650 10654 10673 10683 10690 10694 10694 10688 10684 10680 10673 10672 10671 10670 10674 10676 10677 10678 10677 10677 10676 10674 10671 10668 10665 10663 10659 10656 10652 10649 10645 10641 10637 10632 10627 10622
10602 10608 10619 10621 10621 10628 10634 10635 10639 10643 10654 10664 10681 10680 10679 10675 10673 10669 10662 10658 10656 10657 10660 10662 10664 10664 10663 10663 10661 10659 10656 10654 10651 10648 10645 10641 10637 10633 10629 10625 10620 10615 10610 10604
10587 10595 10607 10604 10614 10616 10614 10624 10628 10627 10636 10645 10658 10669 10668 10664 10658 10652 10649 10647 10645 10645 10646 10649 10651 10649 10647 10646 10645 10643 10641 10639 10636 10632 10629 10624 10619 10616 10612 10607 10603 10597 10591 10584
10570 10571 10588 10595 10598 10602 10605 10614 10614 10612 10616 10618 10635 10663 10652 10648 10642 10638 10635 10635 10637 10634 10632 10634 10635 10635 10632 10631 10629 10627 10626 10623 10619 10615 10611 10607 10604 10600 10595 10590 10584 10577 10571 10563
10552 10556 10565 10576 10586 10592 10594 10596 10591 10589 10593 10614 10617 10652 10636 10627 10626 10623 10621 10623 10624 10624 10620 10616 10618 10618 10617 10615 10613 10611 10609 10606 10603 10599 10594 10590 10585 10580 10576 10570 10563 10556 10549 10541
10532 10534 10552 10566 10566 10563 10570 10573 10575 10571 10581 10600 10604 10615 10615 10614 10610 10605 10600 10606 10610 10609 10607 10606 10603 10600 10600 10598 10595 10593 10590 10587 10584 10580 10575 10571 10565 10559 10554 10548 10541 10534 10527 10518
10511 10522 10529 10546 10541 10540 10550 10558 10558 10562 10583 10561 10601 10583 10604 10589 10586 10586 10589 10590 10594 10594 10591 10587 10587 10584 10583 10580 10577 10573 10571 10567 10565 10561 10556 10550 10544 10538 10532 10525 10519 10512 10505 10496
10494 10507 10506 10524 10527 10523 10522 10533 10551 10551 10557 10550 10569 10574 10570 10565 10566 10568 10567 10571 10576 10576 10575 10571 10567 10566 10563 10562 10560 10557 10553 10549 10546 10542 10536 10530 10524 10517 10510 10503 10496 10489 10480 10472
10479 10485 10489 10503 10508 10494 10490 10545 10524 10526 10532 10533 10539 10568 10544 10549 10547 10550 10549 10551 10555 10554 10552 10552 10551 10549 10546 10543 10540 10537 10533 10529 10525 10521 10515 10507 10501 10494 10486 10479 10471 10463 10453 10445
10463 10466 10466 10476 10475 10459 10517 10509 10507 10507 10515 10514 10521 10539 10527 10528 10526 10531 10533 10531 10531 10530 10532 10533 10532 10530 10526 10522 10518 10515 10512 10507 10503 10498 10490 10482 10475 10467 10461 10453 10445 10435 10426 10418
10440 10445 10443 10443 10455 10455 10484 10500 10489 10474 10491 10497 10496 10510 10508 10497 10504 10532 10510 10503 10510 10511 10512 10511 10509 10507 10503 10499 10495 10492 10489 10483 10480 10474 10466 10457 10449 10443 10435 10427 10417 10409 10399 10389
10408 10413 10416 10421 10422 10426 10480 10470 10465 10452 10461 10488 10465 10476 10476 10470 10484 10511 10477 10490 10490 10489 10487 10485 10483 10482 10479 10475 10472 10469 10465 10461 10456 10449 10443 10435 10427 10419 10410 10400 10391 10380 10369 10359
10381 10386 10388 10398 10395 10403 10434 10446 10441 10427 10461 10455 10448 10449 10449 10451 10453 10470 10465 10464 10465 10463 10462 10460 10459 10456 10453 10451 10447 10444 10440 10437 10430 10425 10417 10410 10402 10394 10383 10374 10364 10353 10344 10334
10362 10360 10366 10372 10370 10373 10403 10403 10408 10414 10418 10424 10427 10429 10430 10431 10433 10435 10439 10437 10435 10435 10435 10434 10432 10430 10428 10427 10423 10420 10415 10410 10404 10397 10391 10384 10377 10369 10357 10348 10337 10327 10317 10305
10333 10341 10345 10347 10348 10358 10369 10370 10374 10377 10385 10391 10397 10402 10406 10406 10409 10411 10412 10412 10411 10409 10407 10406 10405 10403 10401 10399 10396 10392 10388 10383 10377 10370 10364 10357 10349 10338 10328 10320 10308 10297 10284 10271
10307 10317 10320 10325 10333 10336 10342 10344 10347 10349 10353 10357 10362 10367 10372 10377 10380 10382 10383 10385 10385 10383 10381 10379 10378 10375 10374 10371 10367 10363 10358 10352 10347 10342 10336 10328 10319 10309 10298 10286 10275 10265 10250 10240
10282 10289 10302 10306 10309 10310 10313 10317 10321 10325 10327 10329 10332 10335 10339 10343 10346 10349 10351 10352 10353 10354 10354 10352 10350 10347 10343 10340 10336 10331 10326 10322 10317 10312 10305 10296 10286 10276 10266 10255 10241 10233 10220 10207
10262 10265 10271 10280 10282 10281 10289 10291 10295 10299 10304 10306 10308 10311 10312 10314 10316 10318 10319 10321 10321 10321 10321 10321 10318 10315 10311 10307 10302 10299 10296 10291 10286 10279 10270 10262 10253 10243 10235 10224 10213 10200 10189 10176